Погода в Эверетте

США     47°56′48″N   122°14′56″W
темп.,
°C
ветер,
м/с
пор.,
м/с
влажн.,
%
обл.,
%
осадки,
мм/ч
давл.,
гПа
погр.,
м
16 октября, сб
сб1623:00+12юв31185100 0.9 1019430
02:00+12юв41188100 1.8 1018489
05:00+12юв41187100 2.4 1016439
08:00+12ююв4137899 0.0 1015571
11:00+14ююв4127299 0.0 1015644
14:00+19ю61153100 0.0 10121338
17:00+17ю4960100 0.0 1010760
20:00+12юв3978100 0.0 1009227
17 октября, вс
вс1723:00+11юв41083100 0.0 1009236
02:00+11юв3880100 0.0 1007197
05:00+11юв3976100 0.0 1005216
08:00+11ююв2771100 0.0 1005194
11:00+14ююв3866100 0.0 1005364
14:00+15ю3567100 0.0 1005780
17:00+10сз3685100 0.2 1006367
20:00+9сз4878100 0.0 1008530
18 октября, пн
пн1823:00+9ссз387999 0.1 1009545
02:00+9сз3879100 0.0 1011594
05:00+9сз119099 0.0 101284
08:00+9ссв0188100 0.1 101565
11:00+11сз117199 0.1 1016695
14:00+11з2265100 0.0 1017833
17:00+11ююз116871 0.0 1017676
20:00+7ююв118846 0.0 101714
19 октября, вт
вт1923:00+6в119419 0.0 101712
02:00+6юв1195100 0.0 101613
05:00+5юз119579 0.0 101516
08:00+4зюз119618 0.0 101313
11:00+12ю11636 0.0 1012321
14:00+16зюз1148100 0.0 1010503
17:00+14ссз1162100 0.0 100813
20:00+10св1177100 0.0 100710
20 октября, ср
ср2023:00+8ссв008523 0.0 100610
02:00+8ююв2281100 0.0 100615
05:00+8вюв2278100 0.0 100846
08:00+10ююв41081100 0.1 1010492
11:00+9юв3895100 2.2 1012340
14:00+11юв41185100 1.6 1013613
17:00+12ююв41086100 1.9 1015864
20:00+11юв268653 0.1 1017154